Location: Robert Brownlee Observatory
(34.2308°N, 117.2089°W)
Time: 05:10:31
(UTC-07:00)

Cosmos 1943 - Visible Passes

Search period start: 29 May 2015 00:00
Search period end: 08 June 2015 00:00
Orbit: 835 x 849 km, 71.0° (Epoch: 28 May)

Date Brightness Start Highest point End Pass type
(mag) Time Alt. Az. Time Alt. Az. Time Alt. Az.
29 May 4.2 01:39:41 39° NW 01:39:41 39° NW 01:44:00 10° N visible
29 May 5.4 23:43:04 14° ENE 23:43:04 14° ENE 23:44:06 10° NE visible
30 May 4.2 01:24:52 40° NNW 01:24:52 40° NNW 01:29:07 10° N visible
30 May 5.4 23:28:12 13° ENE 23:28:12 13° ENE 23:29:03 10° ENE visible
31 May 4.2 01:10:00 41° NNW 01:10:00 41° NNW 01:14:15 10° N visible
31 May 5.4 23:13:18 12° ENE 23:13:18 12° ENE 23:13:59 10° ENE visible
01 Jun 4.2 00:55:06 43° NNW 00:55:06 43° NNW 00:59:21 10° N visible
01 Jun 5.4 22:58:21 12° ENE 22:58:21 12° ENE 22:58:55 10° ENE visible
02 Jun 4.1 00:40:08 45° NNW 00:40:08 45° NNW 00:44:28 10° N visible
02 Jun 5.4 22:43:21 11° ENE 22:43:21 11° ENE 22:43:49 10° ENE visible
03 Jun 4.0 00:25:08 48° NNW 00:25:08 48° NNW 00:29:34 10° NNE visible
03 Jun 5.4 22:28:18 11° ENE 22:28:18 11° ENE 22:28:42 10° ENE visible
04 Jun 3.8 00:10:05 52° NNW 00:10:05 52° NNW 00:14:40 10° NNE visible
04 Jun 5.4 22:13:11 11° ENE 22:13:11 11° ENE 22:13:33 10° ENE visible
04 Jun 3.7 23:54:57 57° NNW 23:54:57 57° NNW 23:59:46 10° NNE visible
05 Jun 5.3 21:57:59 11° ENE 21:57:59 11° ENE 21:58:22 10° ENE visible
05 Jun 3.5 23:39:45 63° NW 23:39:45 63° NW 23:44:52 10° NNE visible
06 Jun 5.2 21:42:42 11° E 21:42:42 11° E 21:43:07 10° ENE visible
06 Jun 3.3 23:24:27 70° WNW 23:24:27 70° WNW 23:29:58 10° NNE visible
07 Jun 5.2 21:27:18 11° E 21:27:18 11° E 21:27:48 10° E visible
07 Jun 3.2 23:09:04 72° WSW 23:09:24 75° WNW 23:15:03 10° NNE visible
